AC5CM Weather Reports


time (UTC)temp
F
wind
direction
speed
knots
gust
knots
rain 1hr
in
rain 24hr
in
rain mn
in
humidity
%
barometer
mb
20260510065521 75 135 1.7 6.1 0.00 0.00 0.00 93 1011.9
20260510065017 75 147 2.6 3.5 0.00 0.00 0.00 93 1011.8
20260510064514 75 290 1.7 5.2 0.00 0.00 0.00 92 1012.0
20260510064011 75 135 2.6 6.1 0.00 0.00 0.00 92 1011.9
20260510063508 76 100 2.6 6.1 0.00 0.00 0.00 92 1012.1
20260510063005 76 138 0.9 5.2 0.00 0.00 0.00 92 1012.0
20260510062500 76 148 2.6 5.2 0.00 0.00 0.00 91 1012.0
20260510061955 76 184 2.6 5.2 0.00 0.00 0.00 91 1012.0
20260510061453 76 144 1.7 2.6 0.00 0.00 0.00 91 1012.2
20260510060949 76 132 1.7 2.6 0.00 0.00 0.00 90 1012.1
20260510060446 76 149 0.9 5.2 0.00 0.00 0.00 90 1012.3
20260510055942 76 132 1.7 3.5 0.00 0.00 0.00 89 1012.3
20260510055438 76 130 0.9 2.6 0.00 0.00 0.00 89 1012.3
20260510054936 76 132 3.5 6.1 0.00 0.00 0.00 88 1012.0
20260510054431 76 128 3.5 7.0 0.00 0.00 0.00 88 1012.0
20260510053926 76 111 1.7 8.7 0.00 0.00 0.00 88 1012.1
20260510053422 76 149 3.5 6.1 0.00 0.00 0.00 89 1012.0
20260510052919 76 142 3.5 7.0 0.00 0.00 0.00 89 1012.1
20260510052414 76 176 3.5 6.1 0.00 0.00 0.00 89 1012.4
20260510051911 76 117 3.5 5.2 0.00 0.00 0.00 89 1012.4
20260510051408 76 130 0.0 2.6 0.00 0.00 0.00 89 1012.7
20260510050904 76 135 1.7 2.6 0.00 0.00 0.00 89 1012.7
20260510050401 76 128 1.7 3.5 0.00 0.00 0.00 88 1013.0
20260510045858 76 134 1.7 5.2 0.00 0.00 0.00 87 1012.8
20260510045355 76 127 1.7 2.6 0.00 0.00 0.00 86 1012.7
20260510044852 76 20 0.0 2.6 0.00 0.00 0.00 86 1012.6
20260510044348 76 112 1.7 2.6 0.00 0.00 0.00 86 1012.6
20260510043845 76 231 0.9 3.5 0.00 0.00 0.00 85 1012.7
20260510043341 76 115 0.9 2.6 0.00 0.00 0.00 85 1012.8
20260510042839 76 240 1.7 1.7 0.00 0.00 0.00 84 1012.4
20260510042334 77 74 0.0 2.6 0.00 0.00 0.00 84 1012.5
20260510041831 77 115 1.7 3.5 0.00 0.00 0.00 83 1012.5
20260510041328 77 105 2.6 3.5 0.00 0.00 0.00 83 1012.7
20260510040825 77 80 1.7 1.7 0.00 0.00 0.00 81 1012.5
20260510040322 77 129 0.9 1.7 0.00 0.00 0.00 80 1012.5
20260510035818 78 162 1.7 2.6 0.00 0.00 0.00 79 1012.7
20260510035314 78 115 1.7 3.5 0.00 0.00 0.00 79 1012.6
20260510034810 78 149 1.7 6.1 0.00 0.00 0.00 78 1012.7
20260510034308 78 184 2.6 6.1 0.00 0.00 0.00 78 1012.6
20260510033804 78 112 2.6 5.2 0.00 0.00 0.00 78 1012.7
20260510033301 78 112 1.7 6.1 0.00 0.00 0.00 77 1013.0
20260510032757 79 110 3.5 5.2 0.00 0.00 0.00 76 1012.7
20260510032253 79 119 1.7 2.6 0.00 0.00 0.00 75 1012.7
20260510031749 79 120 1.7 5.2 0.00 0.00 0.00 73 1012.9
20260510031245 79 144 0.0 2.6 0.00 0.00 0.00 72 1012.7
20260510030739 79 263 1.7 7.0 0.00 0.00 0.00 71 1012.6
20260510030236 79 144 1.7 2.6 0.00 0.00 0.00 69 1012.4
20260510025734 80 57 1.7 5.2 0.00 0.00 0.00 68 1012.2
20260510025232 80 169 1.7 2.6 0.00 0.00 0.00 66 1012.0
20260510024728 80 219 2.6 5.2 0.00 0.00 0.00 66 1011.8
20260510024225 80 157 2.6 5.2 0.00 0.00 0.00 65 1011.7
20260510023720 80 73 5.2 7.8 0.00 0.00 0.00 64 1011.6
20260510023218 80 82 1.7 5.2 0.00 0.00 0.00 64 1011.4
20260510022714 81 147 2.6 6.1 0.00 0.00 0.00 63 1011.2
20260510022214 81 212 1.7 3.5 0.00 0.00 0.00 62 1011.4
20260510021709 81 105 1.7 3.5 0.00 0.00 0.00 61 1011.2
20260510021206 81 130 1.7 3.5 0.00 0.00 0.00 61 1010.9
20260510020701 81 139 5.2 7.8 0.00 0.00 0.00 60 1010.4
20260510020156 81 181 2.6 2.6 0.00 0.00 0.00 60 1010.8
20260510015653 82 138 0.0 1.7 0.00 0.00 0.00 60 1010.5
20260510015150 82 30 1.7 2.6 0.00 0.00 0.00 60 1010.5
20260510014650 82 122 0.0 2.6 0.00 0.00 0.00 60 1010.4
20260510014148 82 132 2.6 2.6 0.00 0.00 0.00 61 1010.1
20260510013642 82 244 0.0 0.9 0.00 0.00 0.00 61 1010.0
20260510013138 82 102 2.6 5.2 0.00 0.00 0.00 60 1009.9
20260510012638 82 220 2.6 3.5 0.00 0.00 0.00 60 1009.8
20260510012134 83 346 1.7 3.5 0.00 0.00 0.00 58 1009.7
20260510011635 83 148 0.9 2.6 0.00 0.00 0.00 58 1009.6
20260510011130 83 130 1.7 3.5 0.00 0.00 0.00 57 1009.2
20260510010627 82 120 2.6 7.0 0.00 0.00 0.00 58 1009.3
20260510010124 81 105 1.7 5.2 0.00 0.00 0.00 60 1009.2
20260510005619 81 145 1.7 1.7 0.00 0.00 0.00 59 1009.5
20260510005117 82 208 0.0 0.9 0.00 0.00 0.00 57 1009.7
20260510004615 83 49 0.0 1.7 0.00 0.00 0.00 56 1009.6
20260510004113 85 16 0.9 2.6 0.00 0.00 0.00 57 1009.5
20260510003610 85 308 0.0 0.0 0.00 0.00 0.00 62 1009.7
20260510003106 85 327 0.0 0.0 0.00 0.00 0.00 62 1009.4
20260510002600 85 271 0.0 0.0 0.00 0.00 0.00 62 1009.3
20260510002057 85 5 0.0 0.0 0.00 0.00 0.00 60 1009.3
20260510001554 86 8 0.0 0.0 0.00 0.00 0.00 60 1009.2
20260510001053 86 127 0.0 0.0 0.00 0.00 0.00 58 1009.2
20260510000548 86 130 0.0 0.9 0.00 0.00 0.00 58 1009.3
20260510000046 87 187 0.0 0.0 0.00 0.00 0.00 57 1009.2
20260509235541 87 146 0.9 1.7 0.00 0.00 0.00 56 1009.0
20260509235038 87 137 0.0 1.7 0.00 0.00 0.00 56 1009.0
20260509234534 87 145 0.9 2.6 0.00 0.00 0.00 55 1008.9
20260509234032 87 146 1.7 5.2 0.00 0.00 0.00 55 1008.7
20260509233530 87 95 0.9 5.2 0.00 0.00 0.00 56 1008.7
20260509233027 87 251 0.9 3.5 0.00 0.00 0.00 56 1009.0
20260509232523 87 135 1.7 1.7 0.00 0.00 0.00 55 1008.8
20260509232020 87 74 1.7 2.6 0.00 0.00 0.00 55 1008.9
20260509231516 88 208 0.9 1.7 0.00 0.00 0.00 54 1008.8
20260509231015 88 169 0.0 2.6 0.00 0.00 0.00 54 1009.1
20260509230511 89 110 1.7 5.2 0.00 0.00 0.00 53 1008.9
20260509230008 91 131 3.5 6.1 0.00 0.00 0.00 51 1008.8
20260509225503 91 84 0.9 1.7 0.00 0.00 0.00 53 1008.9
20260509224959 91 217 1.7 3.5 0.00 0.00 0.00 50 1008.9
20260509224454 91 279 0.0 0.9 0.00 0.00 0.00 50 1008.8
20260509223952 91 98 1.7 2.6 0.00 0.00 0.00 48 1008.6
20260509223448 91 136 1.7 2.6 0.00 0.00 0.00 50 1008.6
20260509222946 91 165 1.7 2.6 0.00 0.00 0.00 50 1008.5
20260509222441 92 144 0.9 2.6 0.00 0.00 0.00 46 1008.6
20260509221937 91 212 0.9 1.7 0.00 0.00 0.00 48 1008.5
20260509221434 91 117 1.7 5.2 0.00 0.00 0.00 47 1008.7
20260509220930 91 159 1.7 5.2 0.00 0.00 0.00 50 1008.7
20260509220426 91 151 3.5 6.1 0.00 0.00 0.00 47 1008.8
20260509215922 91 126 0.9 3.5 0.00 0.00 0.00 48 1008.6
20260509215418 92 130 0.9 1.7 0.00 0.00 0.00 47 1008.5
20260509214915 93 294 0.9 1.7 0.00 0.00 0.00 44 1008.5
20260509214413 93 126 1.7 2.6 0.00 0.00 0.00 44 1008.7
20260509213910 93 119 0.9 0.9 0.00 0.00 0.00 46 1008.5
20260509213405 92 284 1.7 1.7 0.00 0.00 0.00 45 1008.6
20260509212903 92 157 0.0 1.7 0.00 0.00 0.00 47 1008.5
20260509212400 92 100 0.0 1.7 0.00 0.00 0.00 47 1008.6
20260509211856 92 153 1.7 2.6 0.00 0.00 0.00 48 1008.5
20260509211352 92 109 1.7 5.2 0.00 0.00 0.00 46 1008.7
20260509210848 92 264 0.9 2.6 0.00 0.00 0.00 45 1008.7
20260509210346 92 115 0.9 1.7 0.00 0.00 0.00 49 1008.6
20260509205846 92 224 1.7 2.6 0.00 0.00 0.00 50 1008.7
20260509205340 91 248 0.0 3.5 0.00 0.00 0.00 50 1009.0
20260509204838 92 74 1.7 2.6 0.00 0.00 0.00 47 1008.7
20260509204334 91 141 1.7 3.5 0.00 0.00 0.00 50 1008.8
20260509203830 91 273 0.9 2.6 0.00 0.00 0.00 49 1008.9
20260509203327 91 208 0.0 1.7 0.00 0.00 0.00 49 1009.0
20260509202823 92 126 2.6 5.2 0.00 0.00 0.00 49 1009.3
20260509202320 93 43 0.9 3.5 0.00 0.00 0.00 49 1009.1
20260509201819 93 146 0.9 1.7 0.00 0.00 0.00 49 1009.3
20260509201316 93 31 0.9 1.7 0.00 0.00 0.00 49 1009.2
20260509200812 91 334 0.0 0.9 0.00 0.00 0.00 53 1009.4
20260509200308 91 72 0.0 2.6 0.00 0.00 0.00 51 1009.5
20260509195804 91 90 1.7 3.5 0.00 0.00 0.00 54 1009.5
20260509195259 92 346 1.7 2.6 0.00 0.00 0.00 51 1009.6
20260509194759 92 264 0.0 1.7 0.00 0.00 0.00 52 1009.5
20260509194255 92 127 0.9 1.7 0.00 0.00 0.00 56 1009.7
20260509193752 92 90 0.9 2.6 0.00 0.00 0.00 55 1009.7
20260509193247 92 79 0.0 2.6 0.00 0.00 0.00 55 1009.6
20260509192743 91 143 0.9 3.5 0.00 0.00 0.00 53 1009.7
20260509192244 90 70 0.0 2.6 0.00 0.00 0.00 51 1009.9
20260509191739 90 24 0.0 1.7 0.00 0.00 0.00 51 1009.7
20260509191236 91 323 1.7 2.6 0.00 0.00 0.00 49 1009.6
20260509190732 91 121 1.7 2.6 0.00 0.00 0.00 49 1009.6
20260509190229 90 239 2.6 3.5 0.00 0.00 0.00 51 1009.6
20260509185727 90 160 0.9 2.6 0.00 0.00 0.00 54 1010.0
20260509185223 90 123 0.9 1.7 0.00 0.00 0.00 53 1009.8
20260509184721 90 120 1.7 2.6 0.00 0.00 0.00 57 1009.7
20260509184218 90 111 0.9 1.7 0.00 0.00 0.00 56 1009.9
20260509183714 90 40 0.0 0.9 0.00 0.00 0.00 57 1009.9
20260509183209 90 242 0.0 0.9 0.00 0.00 0.00 55 1010.1
20260509182705 88 343 0.0 0.9 0.00 0.00 0.00 61 1010.1
20260509182203 88 277 1.7 2.6 0.00 0.00 0.00 58 1010.2
20260509181700 88 219 2.6 2.6 0.00 0.00 0.00 59 1010.2
20260509181157 89 108 2.6 3.5 0.00 0.00 0.00 63 1010.3
20260509180654 89 299 0.0 0.9 0.00 0.00 0.00 63 1010.3
20260509180150 89 207 1.7 1.7 0.00 0.00 0.00 62 1010.6
20260509175646 89 248 0.9 1.7 0.00 0.00 0.00 60 1010.8
20260509175143 90 239 0.9 2.6 0.00 0.00 0.00 64 1010.8
20260509174640 89 258 0.0 1.7 0.00 0.00 0.00 67 1011.1
20260509174140 87 324 0.0 0.0 0.00 0.00 0.00 69 1011.1
20260509173636 87 322 0.9 0.9 0.00 0.00 0.00 71 1011.2
20260509173132 88 241 0.9 0.9 0.00 0.00 0.00 66 1011.5
20260509172629 87 140 3.5 3.5 0.00 0.00 0.00 71 1011.5
20260509172125 85 309 0.0 1.7 0.00 0.00 0.00 73 1011.5
20260509171621 85 126 0.9 2.6 0.00 0.00 0.00 75 1011.6
20260509171117 84 277 0.9 1.7 0.00 0.00 0.00 74 1011.6
20260509170614 83 87 0.0 1.7 0.00 0.00 0.00 79 1011.5
20260509170110 82 85 0.0 1.7 0.00 0.00 0.00 78 1011.7
20260509165608 82 123 0.0 1.7 0.00 0.00 0.00 81 1011.8
20260509165104 82 126 0.9 1.7 0.00 0.00 0.00 80 1011.6
20260509164600 82 58 0.0 0.9 0.00 0.00 0.00 81 1011.8
20260509164055 82 314 0.9 0.9 0.00 0.00 0.00 81 1011.7
20260509163554 82 108 0.0 0.0 0.00 0.00 0.00 82 1011.9
20260509163054 82 133 0.0 0.9 0.00 0.00 0.00 80 1011.8
20260509162552 83 85 0.0 0.0 0.00 0.00 0.00 80 1011.7
20260509162048 82 340 0.0 0.0 0.00 0.00 0.00 81 1011.5
20260509161544 82 38 0.0 0.0 0.00 0.00 0.00 82 1011.6
20260509161039 82 128 0.0 0.9 0.00 0.00 0.00 81 1011.3
20260509160535 82 128 0.0 0.0 0.00 0.00 0.00 83 1011.4
20260509160031 81 33 0.0 0.0 0.00 0.00 0.00 84 1011.4
20260509155527 80 25 0.0 0.9 0.00 0.00 0.00 85 1011.4
20260509155023 80 55 0.9 1.7 0.00 0.00 0.00 85 1011.5
20260509154519 82 60 0.9 0.9 0.00 0.00 0.00 82 1011.5
20260509154017 82 150 0.0 0.0 0.00 0.00 0.00 82 1011.4
20260509153514 82 213 0.0 0.0 0.00 0.00 0.00 83 1011.2
20260509153011 81 82 0.0 0.0 0.00 0.00 0.00 85 1011.1
20260509152507 81 117 0.0 0.0 0.00 0.00 0.00 87 1011.1
20260509152003 80 32 0.0 0.0 0.00 0.00 0.00 87 1011.3
20260509151500 80 263 0.0 0.9 0.00 0.00 0.00 89 1011.2
20260509150959 79 33 0.0 0.0 0.00 0.00 0.00 91 1011.1
20260509150455 78 105 0.0 0.0 0.00 0.00 0.00 91 1011.1
20260509145953 78 64 0.0 3.5 0.00 0.00 0.00 92 1010.9
20260509145448 78 113 0.9 3.5 0.00 0.00 0.00 93 1011.1
20260509144944 77 138 0.0 2.6 0.00 0.00 0.00 94 1011.1
20260509144441 77 144 2.6 2.6 0.00 0.00 0.00 94 1011.2
20260509143938 77 107 0.0 2.6 0.00 0.00 0.00 95 1011.0
20260509143436 77 119 0.9 0.9 0.00 0.00 0.00 95 1011.1
20260509142932 76 123 0.0 0.0 0.00 0.00 0.00 95 1010.8
20260509142428 76 123 0.9 1.7 0.00 0.00 0.00 95 1010.5
20260509141924 76 133 1.7 2.6 0.00 0.00 0.00 96 1010.4
20260509141421 76 133 0.0 0.0 0.00 0.00 0.00 96 1010.6
20260509140918 76 122 0.0 0.9 0.00 0.00 0.00 96 1010.4
20260509140414 76 140 0.0 1.7 0.00 0.00 0.00 96 1010.4
20260509135913 76 74 0.0 0.0 0.00 0.00 0.00 96 1010.6
20260509135410 76 94 0.0 0.0 0.00 0.00 0.00 97 1010.7
20260509134907 76 156 1.7 2.6 0.00 0.00 0.00 97 1010.7
20260509134404 76 81 0.0 0.0 0.00 0.00 0.00 97 1010.7
20260509133901 76 357 0.0 0.0 0.00 0.00 0.00 97 1011.1
20260509133358 76 290 0.0 0.0 0.00 0.00 0.00 98 1011.4
20260509132857 76 148 0.9 2.6 0.00 0.00 0.00 97 1011.3
20260509132354 76 25 0.0 0.0 0.00 0.00 0.00 98 1011.6
20260509131851 76 5 0.0 0.0 0.00 0.00 0.00 98 1011.9
20260509131348 76 45 0.0 0.0 0.00 0.00 0.00 98 1012.0
20260509130845 76 249 0.0 0.0 0.00 0.00 0.00 98 1011.6
20260509130340 76 261 0.0 1.7 0.00 0.00 0.00 98 1011.5
20260509125837 76 106 0.0 0.9 0.00 0.00 0.00 98 1011.4
20260509125333 76 128 0.0 0.0 0.00 0.00 0.00 98 1011.2
20260509124830 75 135 0.9 1.7 0.00 0.00 0.00 98 1011.6
20260509124327 75 139 0.9 0.9 0.00 0.00 0.00 98 1011.4
20260509123825 75 136 0.0 0.0 0.00 0.00 0.00 98 1011.4
20260509123322 75 146 0.0 0.0 0.00 0.00 0.00 98 1011.4
20260509122817 75 261 0.0 0.0 0.00 0.00 0.00 98 1011.5
20260509122314 75 262 0.0 0.0 0.00 0.00 0.00 98 1011.5
20260509121811 75 246 0.0 0.9 0.00 0.00 0.00 98 1011.4
20260509121308 75 284 0.0 0.9 0.00 0.00 0.00 98 1011.5
20260509120807 75 127 0.0 0.0 0.00 0.00 0.00 98 1011.5
20260509120304 75 146 0.0 0.9 0.00 0.00 0.00 98 1011.4
20260509115802 75 137 0.0 0.9 0.00 0.00 0.00 98 1011.2
20260509115259 75 130 0.0 2.6 0.00 0.00 0.00 98 1011.2
20260509114757 75 151 0.0 0.0 0.00 0.00 0.00 98 1011.2
20260509114255 74 71 0.0 0.0 0.00 0.00 0.00 98 1011.3
20260509113754 75 71 0.0 0.0 0.00 0.00 0.00 98 1011.1
20260509113250 75 106 0.0 0.0 0.00 0.00 0.00 98 1011.0
20260509112747 75 136 0.0 0.0 0.00 0.00 0.00 98 1010.8
20260509112244 75 137 0.0 0.0 0.00 0.00 0.00 98 1011.0
20260509111742 75 137 0.0 0.0 0.00 0.00 0.00 98 1011.0
20260509111238 75 136 0.0 0.0 0.00 0.00 0.00 98 1010.9
20260509110736 75 143 0.0 0.0 0.00 0.00 0.00 98 1011.1
20260509110232 74 143 0.0 0.0 0.00 0.00 0.00 98 1011.1
20260509105730 74 143 0.0 0.0 0.00 0.00 0.00 97 1011.0
20260509105228 75 143 0.0 0.0 0.00 0.00 0.00 98 1010.7
20260509104724 75 143 0.0 0.0 0.00 0.00 0.00 97 1010.4
20260509104221 75 143 0.0 0.0 0.00 0.00 0.00 97 1010.6
20260509103720 75 143 0.0 0.0 0.00 0.00 0.00 97 1010.7
20260509103216 75 143 0.0 0.0 0.00 0.00 0.00 97 1010.7
20260509102715 75 117 0.0 0.0 0.00 0.00 0.00 97 1010.8
20260509102211 75 104 0.0 0.0 0.00 0.00 0.00 97 1010.4
20260509101708 74 104 0.0 0.0 0.00 0.00 0.00 97 1010.7
20260509101204 74 127 0.0 0.0 0.00 0.00 0.00 97 1010.6
20260509100701 74 110 0.0 0.0 0.00 0.00 0.00 97 1010.4
20260509100158 74 110 0.0 0.0 0.00 0.00 0.00 97 1010.3
20260509095655 74 110 0.0 0.0 0.00 0.00 0.00 97 1010.6
20260509095153 74 110 0.0 0.0 0.00 0.00 0.00 97 1010.5
20260509094649 74 112 0.0 0.0 0.00 0.00 0.00 97 1010.3
20260509094146 74 112 0.0 0.0 0.00 0.00 0.00 97 1010.3
20260509093644 74 112 0.0 0.0 0.00 0.00 0.00 97 1010.1
20260509093141 74 112 0.0 0.0 0.00 0.00 0.00 97 1010.3
20260509092639 74 112 0.0 0.0 0.00 0.00 0.00 97 1010.3
20260509092138 74 112 0.0 0.0 0.00 0.00 0.00 97 1010.4
20260509091635 74 112 0.0 0.0 0.00 0.00 0.00 97 1010.4
20260509091131 74 112 0.0 0.0 0.00 0.00 0.00 97 1010.0
20260509090629 74 110 0.0 0.0 0.00 0.00 0.00 97 1010.3
20260509090126 74 127 0.0 0.0 0.00 0.00 0.00 97 1010.3
20260509085623 74 127 0.0 0.0 0.00 0.00 0.00 96 1010.4
20260509085119 74 128 0.0 0.0 0.00 0.00 0.00 96 1010.3
20260509084617 74 111 0.0 0.0 0.00 0.00 0.00 96 1010.1
20260509084113 75 111 0.0 0.0 0.00 0.00 0.00 96 1010.1
20260509083611 75 105 0.0 0.0 0.00 0.00 0.00 96 1010.0
20260509083107 75 85 0.0 0.0 0.00 0.00 0.00 96 1010.2
20260509082605 75 84 0.0 0.0 0.00 0.00 0.00 96 1010.1
20260509082101 75 103 0.0 0.0 0.00 0.00 0.00 96 1010.3
20260509081559 75 70 0.0 1.7 0.00 0.00 0.00 96 1010.1
20260509081055 75 148 0.9 2.6 0.00 0.00 0.00 96 1010.1
20260509080554 75 83 0.0 1.7 0.00 0.00 0.00 96 1010.1
20260509080052 75 106 0.9 0.9 0.00 0.00 0.00 96 1010.0
20260509075549 75 139 2.6 3.5 0.00 0.00 0.00 96 1009.9
20260509075047 75 104 0.9 2.6 0.00 0.00 0.00 96 1010.0
20260509074543 75 115 1.7 1.7 0.00 0.00 0.00 96 1010.3
20260509074040 75 126 1.7 2.6 0.00 0.00 0.00 96 1010.4
20260509073536 75 131 2.6 2.6 0.00 0.00 0.00 95 1010.6
20260509073033 75 135 0.9 1.7 0.00 0.00 0.00 95 1010.6
20260509072529 75 147 1.7 2.6 0.00 0.00 0.00 95 1010.9
20260509072026 75 144 0.0 0.9 0.00 0.00 0.00 95 1010.9
20260509071523 75 134 0.0 0.9 0.00 0.00 0.00 95 1011.1
20260509071020 75 131 0.0 0.0 0.00 0.00 0.00 95 1011.1
20260509070518 75 102 0.9 0.9 0.00 0.00 0.00 95 1011.1
20260509070014 75 103 0.0 0.0 0.00 0.00 0.00 95 1011.0